STARLINK-1676, 46556

Orbit data source: Space-Track

STARLINK-1676, 46556 is a payload satellite owned by SpaceX/Seattle (US) in LEO that was launched on Tue, 06 Oct 2020 UTC via an FALCON 9 launch vehicle from the Air Force Eastern Test Range (AFETR). Payload-class satellites include a variety of spacecraft equipped with specific instruments for various scientific and technological missions. These include communications satellites like Starlink; space stations such as the ISS; scientific satellites like the Hubble; Earth observation satellites from companies like Planet Labs, Umbra, and HawkEye 360; GPS; miniature CubeSats for education and research; and military/defense satellites.

Loading next visibility...
Identifier
46556, 2020-070AA
Orbit
LEO
Last TLE update
22 hours ago
Origin
Manufacturer
SpaceX/Seattle
Mission
Operational Commercial Communications
Bus & Motor
STARLINK, Unknown motor
Mass
260 kg wet, ~248 kg dry
Launch date (UTC)
2020-10-06 (5 years ago)
Launch vehicle
FALCON 9
Launch site
Air Force Eastern Test Range (AFETR)
Object type
Payload
Rocket body
Debris
Shape & HBR
Box + 1 Pan, 4.4 m
Radar Cross Section
13.562 m², Large (>1 m²)

Expand to show TLE details & history

TLE from 22 hours ago
0 STARLINK-1676
1 46556U 20070AA  25199.07741031 -.00000438  00000-0 -10520-4 0  9993
2 46556  53.0546 149.8373 0001354  84.6583 275.4560 15.06392831264147
Epoch: 2025-07-18T01:51Z
TLE epoch observation values (Epoch: 2025-07-18T01:51:28.25Z)
Latitude
-0.00007°
Longitude
-174.16451°
Altitude
548.024 km
Speed
7.589 km/s
True Right ascension
09h 59m 20s
True Declination
0° 00' 00"
Sunlit
Object was in daylight at epoch
Visualization orbit readout
Latitude
-51.72145°
Longitude
73.15428°
Altitude
566.09 km
Speed
7.577 km/s
Apparent Right ascension
01h 25m 17s
Apparent Declination
-46° 51' 30"
Sunlit
Object is in daylight
Visualization observer readout
Local Sidereal Time
12:29:43
Azimuth
230.84° WSW
Elevation
-77.777°
Doppler factor
1
Orbital elements
Apogee altitude
548.442 km
Perigee altitude
546.567 km
Semi-major axis
6,925.641 km
Eccentricity
0.00014
Inclination
53.0546°
RAAN
149.8373°
Arg. of periapsis
84.6583°
True anomaly
275.44055°
Mean anomaly
275.456°
Eccentric anomaly
275.44828°
Mean motion
3.76576 °/min
Orbital period
95.6 mins
BSTAR
-0.00001052
Loading maneuver chart data...
Loading SW <> Apogee altitude chart data...
Loading historical data...
Loading historical data...
Loading historical data...
Loading historical data...
Loading historical data...
Loading historical data...
Loading historical data...
|